| time (UTC) | temp F | wind direction | speed knots | gust knots | rain 1hr in | rain 24hr in | rain mn in | humidity % | barometer mb |
| 20260906172013 | 63 | 159 | 2.6 | 6.1 | 0.00 | 0.00 | 0.00 | 70 | 1019.3 |
| 20260906171508 | 62 | 142 | 0.9 | 6.1 | 0.00 | 0.00 | 0.00 | 71 | 1019.4 |
| 20260906171003 | 63 | 178 | 4.3 | 6.1 | 0.00 | 0.00 | 0.00 | 69 | 1019.4 |
| 20260906170459 | 63 | 211 | 2.6 | 4.3 | 0.00 | 0.00 | 0.00 | 70 | 1019.2 |
| 20260906165956 | 62 | 183 | 3.5 | 5.2 | 0.00 | 0.00 | 0.00 | 71 | 1019.4 |
| 20260906165454 | 62 | 180 | 4.3 | 7.0 | 0.00 | 0.00 | 0.00 | 72 | 1019.5 |
| 20260906164949 | 63 | 194 | 1.7 | 4.3 | 0.00 | 0.00 | 0.00 | 69 | 1019.4 |
| 20260906164448 | 63 | 96 | 1.7 | 5.2 | 0.00 | 0.00 | 0.00 | 68 | 1019.4 |
| 20260906163944 | 63 | 133 | 0.9 | 4.3 | 0.00 | 0.00 | 0.00 | 69 | 1019.7 |
| 20260906163440 | 62 | 151 | 0.0 | 0.9 | 0.00 | 0.00 | 0.00 | 71 | 1019.6 |
| 20260906162938 | 62 | 177 | 1.7 | 1.7 | 0.00 | 0.00 | 0.00 | 72 | 1019.6 |
| 20260906162437 | 61 | 142 | 0.9 | 1.7 | 0.00 | 0.00 | 0.00 | 72 | 1019.7 |
| 20260906161932 | 62 | 137 | 0.0 | 2.6 | 0.00 | 0.00 | 0.00 | 72 | 1019.7 |
| 20260906161431 | 62 | 157 | 0.9 | 1.7 | 0.00 | 0.00 | 0.00 | 72 | 1019.6 |
| 20260906160931 | 62 | 82 | 0.9 | 1.7 | 0.00 | 0.00 | 0.00 | 73 | 1019.6 |
| 20260906160424 | 62 | 171 | 0.9 | 0.9 | 0.00 | 0.00 | 0.00 | 73 | 1019.5 |
| 20260906155923 | 61 | 150 | 0.9 | 1.7 | 0.00 | 0.00 | 0.00 | 74 | 1019.4 |
| 20260906155417 | 60 | 124 | 0.9 | 1.7 | 0.00 | 0.00 | 0.00 | 76 | 1019.2 |
| 20260906154913 | 60 | 122 | 2.6 | 2.6 | 0.00 | 0.00 | 0.00 | 77 | 1019.3 |
| 20260906154412 | 59 | 105 | 1.7 | 2.6 | 0.00 | 0.00 | 0.00 | 79 | 1019.2 |
| 20260906153911 | 58 | 130 | 0.0 | 1.7 | 0.00 | 0.00 | 0.00 | 81 | 1019.2 |
| 20260906153410 | 58 | 105 | 1.7 | 1.7 | 0.00 | 0.00 | 0.00 | 82 | 1019.0 |
| 20260906152906 | 57 | 138 | 0.9 | 0.9 | 0.00 | 0.00 | 0.00 | 83 | 1019.0 |
| 20260906152400 | 57 | 151 | 0.0 | 0.0 | 0.00 | 0.00 | 0.00 | 86 | 1019.0 |
| 20260906151900 | 55 | 139 | 0.0 | 0.0 | 0.00 | 0.00 | 0.00 | 90 | 1019.1 |
| 20260906151355 | 54 | 139 | 0.0 | 0.9 | 0.00 | 0.00 | 0.00 | 91 | 1019.3 |
| 20260906150851 | 54 | 148 | 0.0 | 0.0 | 0.00 | 0.00 | 0.00 | 93 | 1019.0 |
| 20260906150346 | 53 | 144 | 0.0 | 0.9 | 0.00 | 0.00 | 0.00 | 95 | 1019.3 |
| 20260906145845 | 52 | 146 | 0.0 | 0.0 | 0.00 | 0.00 | 0.00 | 94 | 1019.0 |
| 20260906145344 | 51 | 155 | 0.9 | 0.9 | 0.00 | 0.00 | 0.00 | 94 | 1019.1 |
| 20260906144839 | 51 | 150 | 0.0 | 0.0 | 0.00 | 0.00 | 0.00 | 94 | 1019.1 |
| 20260906144334 | 51 | 150 | 0.0 | 0.0 | 0.00 | 0.00 | 0.00 | 94 | 1019.3 |
| 20260906143834 | 51 | 148 | 0.0 | 0.0 | 0.00 | 0.00 | 0.00 | 94 | 1019.1 |
| 20260906143331 | 51 | 153 | 0.0 | 0.0 | 0.00 | 0.00 | 0.00 | 94 | 1019.2 |
| 20260906142827 | 51 | 156 | 0.0 | 0.0 | 0.00 | 0.00 | 0.00 | 94 | 1019.2 |
| 20260906142321 | 51 | 150 | 0.0 | 0.0 | 0.00 | 0.00 | 0.00 | 94 | 1019.1 |
| 20260906141821 | 51 | 150 | 0.0 | 0.0 | 0.00 | 0.00 | 0.00 | 94 | 1019.1 |
| 20260906141315 | 51 | 152 | 0.0 | 0.0 | 0.00 | 0.00 | 0.00 | 94 | 1019.1 |
| 20260906140814 | 51 | 149 | 0.0 | 0.0 | 0.00 | 0.00 | 0.00 | 94 | 1019.0 |
| 20260906140309 | 51 | 147 | 0.0 | 0.9 | 0.00 | 0.00 | 0.00 | 94 | 1019.0 |
| 20260906135807 | 51 | 133 | 0.0 | 0.9 | 0.00 | 0.00 | 0.00 | 94 | 1019.0 |
| 20260906135305 | 51 | 131 | 0.0 | 0.0 | 0.00 | 0.00 | 0.00 | 94 | 1019.2 |
| 20260906134757 | 51 | 140 | 0.0 | 0.0 | 0.00 | 0.00 | 0.00 | 94 | 1018.8 |
| 20260906134252 | 51 | 133 | 0.0 | 0.0 | 0.00 | 0.00 | 0.00 | 94 | 1018.8 |
| 20260906133748 | 52 | 138 | 0.0 | 2.6 | 0.00 | 0.00 | 0.00 | 94 | 1018.8 |
| 20260906133243 | 52 | 133 | 0.9 | 0.9 | 0.00 | 0.00 | 0.00 | 95 | 1018.9 |
| 20260906132738 | 52 | 152 | 0.9 | 2.6 | 0.00 | 0.00 | 0.00 | 95 | 1018.8 |
| 20260906132234 | 52 | 150 | 0.0 | 0.0 | 0.00 | 0.00 | 0.00 | 94 | 1019.0 |
| 20260906131730 | 52 | 148 | 0.0 | 0.9 | 0.00 | 0.00 | 0.00 | 95 | 1018.8 |
| 20260906131224 | 52 | 140 | 0.9 | 1.7 | 0.00 | 0.00 | 0.00 | 95 | 1019.1 |
| 20260906130720 | 52 | 143 | 0.9 | 1.7 | 0.00 | 0.00 | 0.00 | 95 | 1018.9 |
| 20260906130214 | 52 | 122 | 0.9 | 0.9 | 0.00 | 0.00 | 0.00 | 95 | 1018.8 |
| 20260906125708 | 53 | 151 | 0.0 | 0.0 | 0.00 | 0.00 | 0.00 | 95 | 1018.9 |
| 20260906125206 | 53 | 131 | 0.0 | 0.0 | 0.00 | 0.00 | 0.00 | 95 | 1018.7 |
| 20260906124702 | 53 | 139 | 1.7 | 2.6 | 0.00 | 0.00 | 0.00 | 95 | 1018.9 |
| 20260906124157 | 52 | 154 | 0.0 | 0.0 | 0.00 | 0.00 | 0.00 | 95 | 1019.1 |
| 20260906123655 | 52 | 146 | 0.0 | 0.0 | 0.00 | 0.00 | 0.00 | 95 | 1018.7 |
| 20260906123151 | 52 | 138 | 0.0 | 0.0 | 0.00 | 0.00 | 0.00 | 95 | 1019.1 |
| 20260906122650 | 52 | 145 | 0.0 | 0.0 | 0.00 | 0.00 | 0.00 | 95 | 1018.9 |
| 20260906122145 | 52 | 155 | 0.0 | 0.0 | 0.00 | 0.00 | 0.00 | 95 | 1018.9 |
| 20260906121642 | 52 | 155 | 0.0 | 0.0 | 0.00 | 0.00 | 0.00 | 95 | 1018.8 |
| 20260906121138 | 52 | 155 | 0.0 | 0.0 | 0.00 | 0.00 | 0.00 | 95 | 1018.8 |
| 20260906120634 | 52 | 154 | 0.0 | 0.0 | 0.00 | 0.00 | 0.00 | 95 | 1018.9 |
| 20260906120130 | 52 | 160 | 0.0 | 0.0 | 0.00 | 0.00 | 0.00 | 95 | 1019.0 |
| 20260906115625 | 52 | 150 | 0.0 | 0.0 | 0.00 | 0.00 | 0.00 | 95 | 1018.8 |
| 20260906115120 | 52 | 145 | 0.0 | 0.0 | 0.00 | 0.00 | 0.00 | 95 | 1018.8 |
| 20260906114613 | 52 | 123 | 0.9 | 0.9 | 0.00 | 0.00 | 0.00 | 95 | 1018.6 |
| 20260906114108 | 52 | 108 | 0.9 | 1.7 | 0.00 | 0.00 | 0.00 | 95 | 1018.9 |
| 20260906113608 | 52 | 135 | 0.0 | 0.0 | 0.00 | 0.00 | 0.00 | 95 | 1019.1 |
| 20260906113103 | 52 | 153 | 0.0 | 0.0 | 0.00 | 0.00 | 0.00 | 95 | 1019.0 |
| 20260906112603 | 52 | 145 | 0.0 | 0.0 | 0.00 | 0.00 | 0.00 | 95 | 1019.0 |
| 20260906112100 | 52 | 128 | 0.9 | 0.9 | 0.00 | 0.00 | 0.00 | 95 | 1019.2 |
| 20260906111559 | 52 | 147 | 0.0 | 0.0 | 0.00 | 0.00 | 0.00 | 95 | 1019.1 |
| 20260906111054 | 52 | 147 | 0.0 | 0.0 | 0.00 | 0.00 | 0.00 | 95 | 1019.0 |
| 20260906110549 | 52 | 152 | 0.0 | 0.0 | 0.00 | 0.00 | 0.00 | 95 | 1019.2 |
| 20260906110048 | 52 | 152 | 0.0 | 0.0 | 0.00 | 0.00 | 0.00 | 95 | 1019.3 |
| 20260906105543 | 52 | 152 | 0.0 | 0.0 | 0.00 | 0.00 | 0.00 | 95 | 1019.1 |
| 20260906105039 | 52 | 155 | 0.0 | 0.0 | 0.00 | 0.00 | 0.00 | 95 | 1019.0 |
| 20260906104537 | 52 | 151 | 0.0 | 0.0 | 0.00 | 0.00 | 0.00 | 95 | 1019.0 |
| 20260906104032 | 51 | 148 | 0.0 | 0.0 | 0.00 | 0.00 | 0.00 | 94 | 1018.9 |
| 20260906103531 | 51 | 160 | 0.0 | 0.0 | 0.00 | 0.00 | 0.00 | 94 | 1019.1 |
| 20260906103026 | 51 | 151 | 0.0 | 0.0 | 0.00 | 0.00 | 0.00 | 94 | 1018.9 |
| 20260906102526 | 51 | 152 | 0.0 | 0.0 | 0.00 | 0.00 | 0.00 | 94 | 1018.8 |
| 20260906102020 | 52 | 152 | 0.0 | 0.0 | 0.00 | 0.00 | 0.00 | 94 | 1019.1 |
| 20260906101515 | 52 | 152 | 0.0 | 0.0 | 0.00 | 0.00 | 0.00 | 94 | 1019.2 |
| 20260906101010 | 52 | 152 | 0.0 | 0.0 | 0.00 | 0.00 | 0.00 | 94 | 1018.9 |
| 20260906100506 | 52 | 152 | 0.0 | 0.0 | 0.00 | 0.00 | 0.00 | 94 | 1019.0 |
| 20260906100000 | 52 | 152 | 0.0 | 0.0 | 0.00 | 0.00 | 0.00 | 94 | 1018.9 |
| 20260906095455 | 52 | 151 | 0.0 | 0.0 | 0.00 | 0.00 | 0.00 | 94 | 1018.9 |
| 20260906094951 | 51 | 152 | 0.0 | 0.0 | 0.00 | 0.00 | 0.00 | 94 | 1019.0 |
| 20260906094449 | 51 | 152 | 0.0 | 0.0 | 0.00 | 0.00 | 0.00 | 94 | 1019.2 |
| 20260906093946 | 51 | 152 | 0.0 | 0.0 | 0.00 | 0.00 | 0.00 | 94 | 1019.1 |
| 20260906093442 | 51 | 153 | 0.0 | 0.0 | 0.00 | 0.00 | 0.00 | 94 | 1019.1 |
| 20260906092942 | 51 | 153 | 0.0 | 0.0 | 0.00 | 0.00 | 0.00 | 94 | 1018.9 |
| 20260906092441 | 51 | 150 | 0.0 | 0.0 | 0.00 | 0.00 | 0.00 | 94 | 1018.9 |
| 20260906091936 | 51 | 152 | 0.0 | 0.0 | 0.00 | 0.00 | 0.00 | 93 | 1019.1 |
| 20260906091432 | 51 | 151 | 0.0 | 0.0 | 0.00 | 0.00 | 0.00 | 93 | 1019.0 |
| 20260906090929 | 51 | 154 | 0.0 | 0.0 | 0.00 | 0.00 | 0.00 | 93 | 1019.1 |
| 20260906090424 | 51 | 160 | 0.0 | 0.0 | 0.00 | 0.00 | 0.00 | 93 | 1019.1 |
| 20260906085918 | 52 | 160 | 0.0 | 0.0 | 0.00 | 0.00 | 0.00 | 93 | 1019.0 |
| 20260906085417 | 52 | 151 | 0.0 | 0.0 | 0.00 | 0.00 | 0.00 | 93 | 1018.7 |
| 20260906084917 | 52 | 151 | 0.0 | 0.0 | 0.00 | 0.00 | 0.00 | 93 | 1019.0 |
| 20260906084412 | 52 | 154 | 0.0 | 0.0 | 0.00 | 0.00 | 0.00 | 93 | 1018.9 |
| 20260906083911 | 52 | 154 | 0.0 | 0.0 | 0.00 | 0.00 | 0.00 | 92 | 1019.0 |
| 20260906083407 | 52 | 162 | 0.0 | 0.0 | 0.00 | 0.00 | 0.00 | 92 | 1019.0 |
| 20260906082906 | 52 | 148 | 0.0 | 0.0 | 0.00 | 0.00 | 0.00 | 92 | 1019.0 |
| 20260906082402 | 52 | 148 | 0.0 | 0.0 | 0.00 | 0.00 | 0.00 | 92 | 1018.9 |
| 20260906081857 | 52 | 144 | 0.0 | 0.0 | 0.00 | 0.00 | 0.00 | 92 | 1019.1 |
| 20260906081353 | 52 | 148 | 0.0 | 0.0 | 0.00 | 0.00 | 0.00 | 92 | 1019.0 |
| 20260906080849 | 52 | 155 | 0.0 | 0.0 | 0.00 | 0.00 | 0.00 | 92 | 1018.9 |
| 20260906080345 | 52 | 155 | 0.0 | 0.0 | 0.00 | 0.00 | 0.00 | 92 | 1019.0 |
| 20260906075844 | 53 | 155 | 0.0 | 0.0 | 0.00 | 0.00 | 0.00 | 92 | 1018.9 |
| 20260906075339 | 53 | 154 | 0.0 | 0.0 | 0.00 | 0.00 | 0.00 | 92 | 1018.9 |
| 20260906074835 | 53 | 154 | 0.0 | 0.0 | 0.00 | 0.00 | 0.00 | 92 | 1019.0 |
| 20260906074334 | 53 | 150 | 0.0 | 0.0 | 0.00 | 0.00 | 0.00 | 92 | 1019.1 |
| 20260906073833 | 53 | 139 | 0.0 | 0.0 | 0.00 | 0.00 | 0.00 | 91 | 1018.9 |
| 20260906073328 | 53 | 155 | 0.0 | 0.0 | 0.00 | 0.00 | 0.00 | 91 | 1019.2 |
| 20260906072825 | 53 | 159 | 0.0 | 0.0 | 0.00 | 0.00 | 0.00 | 91 | 1019.0 |
| 20260906072320 | 53 | 160 | 0.0 | 0.0 | 0.00 | 0.00 | 0.00 | 91 | 1019.3 |
| 20260906071816 | 53 | 153 | 0.0 | 0.0 | 0.00 | 0.00 | 0.00 | 91 | 1019.2 |
| 20260906071315 | 53 | 149 | 0.0 | 0.0 | 0.00 | 0.00 | 0.00 | 91 | 1019.1 |
| 20260906070812 | 53 | 150 | 0.0 | 0.0 | 0.00 | 0.00 | 0.00 | 90 | 1019.4 |
| 20260906070308 | 53 | 150 | 0.0 | 0.0 | 0.00 | 0.00 | 0.00 | 90 | 1019.4 |
| 20260906065808 | 53 | 150 | 0.0 | 0.0 | 0.00 | 0.00 | 0.00 | 90 | 1019.1 |
| 20260906065305 | 53 | 150 | 0.0 | 0.0 | 0.00 | 0.00 | 0.00 | 90 | 1019.3 |
| 20260906064758 | 53 | 150 | 0.0 | 0.0 | 0.00 | 0.00 | 0.00 | 90 | 1019.1 |
| 20260906064254 | 53 | 154 | 0.0 | 0.0 | 0.00 | 0.00 | 0.00 | 90 | 1019.2 |
| 20260906063749 | 53 | 154 | 0.0 | 0.0 | 0.00 | 0.00 | 0.00 | 90 | 1019.2 |
| 20260906063245 | 53 | 118 | 0.9 | 4.3 | 0.00 | 0.00 | 0.00 | 90 | 1019.3 |
| 20260906062740 | 53 | 157 | 0.0 | 0.0 | 0.00 | 0.00 | 0.00 | 89 | 1019.3 |
| 20260906062239 | 53 | 156 | 0.0 | 0.0 | 0.00 | 0.00 | 0.00 | 89 | 1019.2 |
| 20260906061735 | 53 | 156 | 0.0 | 0.0 | 0.00 | 0.00 | 0.00 | 89 | 1019.2 |
| 20260906061231 | 54 | 160 | 0.0 | 0.0 | 0.00 | 0.00 | 0.00 | 88 | 1019.3 |
| 20260906060726 | 54 | 151 | 0.0 | 0.0 | 0.00 | 0.00 | 0.00 | 88 | 1019.4 |
| 20260906060224 | 54 | 151 | 0.0 | 0.0 | 0.00 | 0.00 | 0.00 | 88 | 1019.2 |
| 20260906055719 | 54 | 151 | 0.0 | 0.0 | 0.00 | 0.00 | 0.00 | 87 | 1019.3 |
| 20260906055214 | 54 | 152 | 0.0 | 0.0 | 0.00 | 0.00 | 0.00 | 87 | 1019.4 |
| 20260906054709 | 54 | 152 | 0.0 | 0.0 | 0.00 | 0.00 | 0.00 | 86 | 1019.4 |
| 20260906054204 | 54 | 154 | 0.0 | 0.0 | 0.00 | 0.00 | 0.00 | 86 | 1019.6 |
| 20260906053702 | 55 | 152 | 0.0 | 0.0 | 0.00 | 0.00 | 0.00 | 86 | 1019.5 |
| 20260906053156 | 55 | 153 | 0.0 | 0.0 | 0.00 | 0.00 | 0.00 | 85 | 1019.5 |
| 20260906052651 | 55 | 153 | 0.0 | 0.0 | 0.00 | 0.00 | 0.00 | 85 | 1019.5 |
| 20260906052148 | 55 | 152 | 0.0 | 0.0 | 0.00 | 0.00 | 0.00 | 84 | 1019.4 |
| 20260906051644 | 55 | 153 | 0.0 | 0.0 | 0.00 | 0.00 | 0.00 | 84 | 1019.5 |
| 20260906051143 | 55 | 152 | 0.0 | 0.0 | 0.00 | 0.00 | 0.00 | 84 | 1019.6 |
| 20260906050639 | 55 | 151 | 0.0 | 0.0 | 0.00 | 0.00 | 0.00 | 84 | 1019.7 |
| 20260906050134 | 55 | 155 | 0.0 | 0.0 | 0.00 | 0.00 | 0.00 | 85 | 1019.6 |
| 20260906045633 | 55 | 148 | 0.0 | 0.0 | 0.00 | 0.00 | 0.00 | 85 | 1019.6 |
| 20260906045128 | 55 | 147 | 0.0 | 0.0 | 0.00 | 0.00 | 0.00 | 84 | 1019.5 |
| 20260906044624 | 55 | 150 | 0.0 | 0.0 | 0.00 | 0.00 | 0.00 | 84 | 1019.4 |
| 20260906044119 | 56 | 150 | 0.0 | 0.0 | 0.00 | 0.00 | 0.00 | 83 | 1019.4 |
| 20260906043615 | 56 | 150 | 0.0 | 0.0 | 0.00 | 0.00 | 0.00 | 83 | 1019.6 |
| 20260906043110 | 56 | 150 | 0.0 | 0.0 | 0.00 | 0.00 | 0.00 | 81 | 1019.8 |
| 20260906042610 | 57 | 150 | 0.0 | 0.0 | 0.00 | 0.00 | 0.00 | 80 | 1019.6 |
| 20260906042104 | 57 | 150 | 0.0 | 0.0 | 0.00 | 0.00 | 0.00 | 79 | 1019.5 |
| 20260906041601 | 57 | 150 | 0.0 | 0.0 | 0.00 | 0.00 | 0.00 | 78 | 1019.7 |
| 20260906041055 | 57 | 150 | 0.0 | 0.0 | 0.00 | 0.00 | 0.00 | 78 | 1019.8 |
| 20260906040550 | 58 | 150 | 0.0 | 0.0 | 0.00 | 0.00 | 0.00 | 78 | 1019.6 |
| 20260906040045 | 58 | 150 | 0.0 | 0.0 | 0.00 | 0.00 | 0.00 | 78 | 1019.8 |
| 20260906035541 | 58 | 152 | 0.0 | 0.0 | 0.00 | 0.00 | 0.00 | 77 | 1019.6 |
| 20260906035031 | 58 | 153 | 0.0 | 0.0 | 0.00 | 0.00 | 0.00 | 78 | 1019.6 |
| 20260906034531 | 58 | 132 | 0.0 | 0.0 | 0.00 | 0.00 | 0.00 | 77 | 1019.5 |
| 20260906034026 | 59 | 147 | 0.0 | 0.0 | 0.00 | 0.00 | 0.00 | 77 | 1019.6 |
| 20260906033521 | 59 | 148 | 0.0 | 0.0 | 0.00 | 0.00 | 0.00 | 77 | 1019.6 |
| 20260906033016 | 60 | 148 | 0.0 | 0.9 | 0.00 | 0.00 | 0.00 | 76 | 1019.5 |
| 20260906032512 | 59 | 124 | 0.0 | 4.3 | 0.00 | 0.00 | 0.00 | 76 | 1019.5 |
| 20260906032007 | 59 | 149 | 0.0 | 0.0 | 0.00 | 0.00 | 0.00 | 79 | 1019.6 |
| 20260906031503 | 59 | 149 | 0.0 | 0.0 | 0.00 | 0.00 | 0.00 | 78 | 1019.3 |
| 20260906030957 | 60 | 149 | 0.0 | 0.0 | 0.00 | 0.00 | 0.00 | 77 | 1019.2 |
| 20260906030452 | 60 | 149 | 0.0 | 0.0 | 0.00 | 0.00 | 0.00 | 77 | 1019.5 |
| 20260906025946 | 60 | 149 | 0.0 | 0.0 | 0.00 | 0.00 | 0.00 | 77 | 1019.4 |
| 20260906025445 | 60 | 149 | 0.0 | 0.0 | 0.00 | 0.00 | 0.00 | 77 | 1019.5 |
| 20260906024944 | 60 | 143 | 0.0 | 0.0 | 0.00 | 0.00 | 0.00 | 76 | 1019.4 |
| 20260906024439 | 61 | 153 | 0.0 | 0.0 | 0.00 | 0.00 | 0.00 | 75 | 1019.4 |
| 20260906023938 | 61 | 151 | 0.0 | 0.0 | 0.00 | 0.00 | 0.00 | 75 | 1019.4 |
| 20260906023435 | 62 | 137 | 0.0 | 0.0 | 0.00 | 0.00 | 0.00 | 72 | 1019.4 |
| 20260906022930 | 62 | 150 | 0.0 | 0.0 | 0.00 | 0.00 | 0.00 | 73 | 1019.1 |
| 20260906022426 | 63 | 151 | 0.0 | 0.0 | 0.00 | 0.00 | 0.00 | 72 | 1019.1 |
| 20260906021921 | 63 | 150 | 0.0 | 0.0 | 0.00 | 0.00 | 0.00 | 69 | 1019.3 |
| 20260906021420 | 63 | 145 | 0.0 | 0.0 | 0.00 | 0.00 | 0.00 | 69 | 1019.3 |
| 20260906020915 | 64 | 145 | 0.0 | 0.0 | 0.00 | 0.00 | 0.00 | 68 | 1019.2 |
| 20260906020415 | 64 | 147 | 0.9 | 0.9 | 0.00 | 0.00 | 0.00 | 68 | 1019.0 |
| 20260906015910 | 65 | 140 | 0.9 | 0.9 | 0.00 | 0.00 | 0.00 | 65 | 1019.2 |
| 20260906015409 | 65 | 149 | 0.0 | 1.7 | 0.00 | 0.00 | 0.00 | 64 | 1019.3 |
| 20260906014908 | 66 | 152 | 0.9 | 0.9 | 0.00 | 0.00 | 0.00 | 64 | 1019.2 |
| 20260906014403 | 68 | 157 | 0.9 | 1.7 | 0.00 | 0.00 | 0.00 | 61 | 1019.1 |
| 20260906013900 | 69 | 153 | 0.0 | 1.7 | 0.00 | 0.00 | 0.00 | 55 | 1019.1 |
| 20260906013355 | 70 | 258 | 1.7 | 2.6 | 0.00 | 0.00 | 0.00 | 52 | 1018.8 |
| 20260906012850 | 70 | 159 | 0.9 | 1.7 | 0.00 | 0.00 | 0.00 | 51 | 1019.0 |
| 20260906012345 | 71 | 150 | 0.0 | 0.9 | 0.00 | 0.00 | 0.00 | 50 | 1019.3 |
| 20260906011844 | 71 | 164 | 0.9 | 1.7 | 0.00 | 0.00 | 0.00 | 50 | 1019.2 |
| 20260906011339 | 72 | 157 | 0.9 | 0.9 | 0.00 | 0.00 | 0.00 | 48 | 1019.0 |
| 20260906010835 | 71 | 153 | 0.9 | 0.9 | 0.00 | 0.00 | 0.00 | 49 | 1019.1 |
| 20260906010331 | 72 | 168 | 0.9 | 1.7 | 0.00 | 0.00 | 0.00 | 48 | 1019.2 |
| 20260906005827 | 72 | 189 | 0.9 | 1.7 | 0.00 | 0.00 | 0.00 | 48 | 1019.1 |
| 20260906005326 | 72 | 164 | 0.9 | 0.9 | 0.00 | 0.00 | 0.00 | 49 | 1019.0 |
| 20260906004825 | 72 | 162 | 0.9 | 0.9 | 0.00 | 0.00 | 0.00 | 48 | 1019.1 |
| 20260906004324 | 72 | 161 | 0.0 | 0.9 | 0.00 | 0.00 | 0.00 | 50 | 1018.9 |
| 20260906003820 | 72 | 164 | 1.7 | 5.2 | 0.00 | 0.00 | 0.00 | 47 | 1018.9 |
| 20260906003315 | 73 | 162 | 1.7 | 2.6 | 0.00 | 0.00 | 0.00 | 47 | 1019.0 |
| 20260906002811 | 73 | 168 | 0.0 | 1.7 | 0.00 | 0.00 | 0.00 | 45 | 1018.8 |
| 20260906002310 | 73 | 178 | 1.7 | 1.7 | 0.00 | 0.00 | 0.00 | 46 | 1018.9 |
| 20260906001806 | 74 | 213 | 2.6 | 2.6 | 0.00 | 0.00 | 0.00 | 46 | 1018.7 |
| 20260906001301 | 73 | 169 | 0.9 | 2.6 | 0.00 | 0.00 | 0.00 | 49 | 1019.0 |
| 20260906000755 | 72 | 198 | 1.7 | 1.7 | 0.00 | 0.00 | 0.00 | 49 | 1018.8 |
| 20260906000250 | 73 | 209 | 2.6 | 5.2 | 0.00 | 0.00 | 0.00 | 49 | 1018.9 |
| 20260905235745 | 72 | 201 | 3.5 | 4.3 | 0.00 | 0.00 | 0.00 | 46 | 1018.8 |
| 20260905235244 | 73 | 197 | 4.3 | 4.3 | 0.00 | 0.00 | 0.00 | 47 | 1018.9 |
| 20260905234741 | 74 | 183 | 2.6 | 5.2 | 0.00 | 0.00 | 0.00 | 44 | 1019.0 |
| 20260905234235 | 74 | 223 | 2.6 | 2.6 | 0.00 | 0.00 | 0.00 | 44 | 1019.0 |
| 20260905233731 | 73 | 190 | 0.9 | 1.7 | 0.00 | 0.00 | 0.00 | 46 | 1018.7 |
| 20260905233230 | 73 | 200 | 2.6 | 4.3 | 0.00 | 0.00 | 0.00 | 47 | 1019.2 |
| 20260905232730 | 73 | 166 | 0.0 | 0.9 | 0.00 | 0.00 | 0.00 | 48 | 1019.2 |
| 20260905232226 | 73 | 177 | 0.9 | 1.7 | 0.00 | 0.00 | 0.00 | 47 | 1019.1 |
| 20260905231721 | 73 | 154 | 0.9 | 2.6 | 0.00 | 0.00 | 0.00 | 52 | 1019.1 |
| 20260905231217 | 73 | 197 | 4.3 | 6.1 | 0.00 | 0.00 | 0.00 | 52 | 1019.0 |
| 20260905230713 | 72 | 160 | 0.0 | 2.6 | 0.00 | 0.00 | 0.00 | 53 | 1019.2 |
| 20260905230211 | 71 | 213 | 1.7 | 1.7 | 0.00 | 0.00 | 0.00 | 55 | 1019.2 |
| 20260905225710 | 71 | 208 | 1.7 | 2.6 | 0.00 | 0.00 | 0.00 | 54 | 1019.3 |
| 20260905225206 | 69 | 221 | 0.9 | 2.6 | 0.00 | 0.00 | 0.00 | 56 | 1019.1 |
| 20260905224705 | 69 | 171 | 0.9 | 1.7 | 0.00 | 0.00 | 0.00 | 57 | 1019.3 |
| 20260905224200 | 70 | 165 | 0.9 | 2.6 | 0.00 | 0.00 | 0.00 | 56 | 1019.2 |
| 20260905223656 | 69 | 175 | 1.7 | 2.6 | 0.00 | 0.00 | 0.00 | 57 | 1019.4 |
| 20260905223153 | 71 | 182 | 3.5 | 7.8 | 0.00 | 0.00 | 0.00 | 55 | 1019.4 |
| 20260905222649 | 70 | 116 | 0.9 | 2.6 | 0.00 | 0.00 | 0.00 | 58 | 1019.3 |
| 20260905222148 | 71 | 73 | 1.7 | 2.6 | 0.00 | 0.00 | 0.00 | 58 | 1019.5 |
| 20260905221644 | 71 | 167 | 0.9 | 5.2 | 0.00 | 0.00 | 0.00 | 58 | 1019.7 |
| 20260905221141 | 69 | 166 | 0.9 | 5.2 | 0.00 | 0.00 | 0.00 | 58 | 1019.8 |
| 20260905220636 | 69 | 72 | 2.6 | 4.3 | 0.00 | 0.00 | 0.00 | 57 | 1019.7 |
| 20260905220132 | 68 | 186 | 1.7 | 4.3 | 0.00 | 0.00 | 0.00 | 60 | 1019.9 |
| 20260905215632 | 68 | 222 | 4.3 | 7.0 | 0.00 | 0.00 | 0.00 | 59 | 1020.0 |
| 20260905215127 | 68 | 204 | 1.7 | 4.3 | 0.00 | 0.00 | 0.00 | 64 | 1020.1 |
| 20260905214623 | 67 | 230 | 3.5 | 6.1 | 0.00 | 0.00 | 0.00 | 64 | 1020.1 |
| 20260905214123 | 66 | 226 | 2.6 | 2.6 | 0.00 | 0.00 | 0.00 | 64 | 1020.1 |
| 20260905213619 | 66 | 192 | 0.0 | 2.6 | 0.00 | 0.00 | 0.00 | 67 | 1020.3 |
| 20260905213114 | 65 | 170 | 0.9 | 1.7 | 0.00 | 0.00 | 0.00 | 68 | 1020.2 |
| 20260905212609 | 64 | 112 | 0.9 | 0.9 | 0.00 | 0.00 | 0.00 | 69 | 1020.1 |
| 20260905212108 | 64 | 102 | 1.7 | 1.7 | 0.00 | 0.00 | 0.00 | 71 | 1020.2 |
| 20260905211603 | 64 | 135 | 1.7 | 1.7 | 0.00 | 0.00 | 0.00 | 70 | 1020.3 |
| 20260905211059 | 64 | 209 | 0.9 | 4.3 | 0.00 | 0.00 | 0.00 | 69 | 1020.3 |
| 20260905210554 | 64 | 193 | 2.6 | 2.6 | 0.00 | 0.00 | 0.00 | 70 | 1020.4 |
| 20260905210049 | 65 | 97 | 1.7 | 2.6 | 0.00 | 0.00 | 0.00 | 70 | 1020.4 |
| 20260905205548 | 65 | 133 | 0.9 | 2.6 | 0.00 | 0.00 | 0.00 | 70 | 1020.5 |
| 20260905205043 | 65 | 156 | 0.0 | 0.0 | 0.00 | 0.00 | 0.00 | 69 | 1020.4 |
| 20260905204538 | 64 | 179 | 1.7 | 2.6 | 0.00 | 0.00 | 0.00 | 69 | 1020.4 |
| 20260905204033 | 64 | 170 | 1.7 | 2.6 | 0.00 | 0.00 | 0.00 | 70 | 1020.5 |
| 20260905203533 | 64 | 132 | 0.9 | 0.9 | 0.00 | 0.00 | 0.00 | 70 | 1020.6 |
| 20260905203028 | 64 | 144 | 0.9 | 1.7 | 0.00 | 0.00 | 0.00 | 68 | 1020.5 |
| 20260905202523 | 64 | 188 | 1.7 | 1.7 | 0.00 | 0.00 | 0.00 | 68 | 1020.7 |
| 20260905202019 | 64 | 148 | 0.0 | 0.9 | 0.00 | 0.00 | 0.00 | 67 | 1020.5 |
| 20260905201515 | 63 | 166 | 0.0 | 0.9 | 0.00 | 0.00 | 0.00 | 68 | 1020.6 |
| 20260905201014 | 63 | 200 | 0.9 | 1.7 | 0.00 | 0.00 | 0.00 | 69 | 1020.7 |
| 20260905200510 | 63 | 196 | 2.6 | 2.6 | 0.00 | 0.00 | 0.00 | 69 | 1020.7 |
| 20260905200009 | 63 | 200 | 2.6 | 4.3 | 0.00 | 0.00 | 0.00 | 70 | 1020.6 |
| 20260905195503 | 63 | 237 | 1.7 | 2.6 | 0.00 | 0.00 | 0.00 | 71 | 1020.6 |
| 20260905194958 | 62 | 183 | 1.7 | 2.6 | 0.00 | 0.00 | 0.00 | 72 | 1020.7 |
| 20260905194458 | 62 | 230 | 1.7 | 2.6 | 0.00 | 0.00 | 0.00 | 72 | 1020.7 |
| 20260905193957 | 63 | 184 | 1.7 | 2.6 | 0.00 | 0.00 | 0.00 | 72 | 1020.8 |
| 20260905193452 | 63 | 152 | 2.6 | 4.3 | 0.00 | 0.00 | 0.00 | 72 | 1020.8 |
| 20260905192947 | 63 | 182 | 1.7 | 2.6 | 0.00 | 0.00 | 0.00 | 72 | 1020.8 |
| 20260905192443 | 63 | 223 | 2.6 | 4.3 | 0.00 | 0.00 | 0.00 | 72 | 1020.9 |
| 20260905191938 | 64 | 148 | 4.3 | 5.2 | 0.00 | 0.00 | 0.00 | 69 | 1020.9 |
| 20260905191438 | 64 | 213 | 1.7 | 4.3 | 0.00 | 0.00 | 0.00 | 70 | 1020.9 |
| 20260905190937 | 64 | 210 | 1.7 | 4.3 | 0.00 | 0.00 | 0.00 | 71 | 1020.9 |
| 20260905190435 | 64 | 126 | 1.7 | 6.1 | 0.00 | 0.00 | 0.00 | 69 | 1021.0 |
| 20260905185934 | 65 | 212 | 5.2 | 7.0 | 0.00 | 0.00 | 0.00 | 68 | 1021.1 |
| 20260905185429 | 64 | 164 | 2.6 | 4.3 | 0.00 | 0.00 | 0.00 | 70 | 1021.1 |
| 20260905184928 | 62 | 186 | 1.7 | 7.8 | 0.00 | 0.00 | 0.00 | 70 | 1021.1 |
| 20260905184423 | 62 | 214 | 2.6 | 4.3 | 0.00 | 0.00 | 0.00 | 72 | 1021.2 |
| 20260905183921 | 61 | 214 | 2.6 | 2.6 | 0.00 | 0.00 | 0.00 | 75 | 1021.1 |
| 20260905183416 | 61 | 184 | 0.9 | 4.3 | 0.00 | 0.00 | 0.00 | 75 | 1021.1 |
| 20260905182911 | 61 | 229 | 2.6 | 4.3 | 0.00 | 0.00 | 0.00 | 74 | 1021.2 |
| 20260905182410 | 61 | 177 | 1.7 | 4.3 | 0.00 | 0.00 | 0.00 | 74 | 1021.2 |
| 20260905181907 | 61 | 166 | 1.7 | 5.2 | 0.00 | 0.00 | 0.00 | 75 | 1021.3 |
| 20260905181406 | 61 | 203 | 0.9 | 2.6 | 0.00 | 0.00 | 0.00 | 75 | 1021.4 |
| 20260905180905 | 61 | 181 | 0.9 | 2.6 | 0.00 | 0.00 | 0.00 | 75 | 1021.3 |
| 20260905180401 | 61 | 167 | 0.9 | 1.7 | 0.00 | 0.00 | 0.00 | 75 | 1021.4 |
| 20260905175855 | 61 | 196 | 1.7 | 2.6 | 0.00 | 0.00 | 0.00 | 75 | 1021.2 |
| 20260905175349 | 60 | 212 | 2.6 | 2.6 | 0.00 | 0.00 | 0.00 | 76 | 1021.5 |
| 20260905174844 | 60 | 194 | 1.7 | 2.6 | 0.00 | 0.00 | 0.00 | 77 | 1021.3 |
| 20260905174340 | 60 | 184 | 0.9 | 1.7 | 0.00 | 0.00 | 0.00 | 77 | 1021.4 |
| 20260905173836 | 60 | 174 | 0.9 | 2.6 | 0.00 | 0.00 | 0.00 | 77 | 1021.1 |
| 20260905173332 | 60 | 200 | 1.7 | 2.6 | 0.00 | 0.00 | 0.00 | 77 | 1021.1 |
| 20260905172832 | 60 | 159 | 0.0 | 0.9 | 0.00 | 0.00 | 0.00 | 77 | 1021.1 |
| 20260905172330 | 60 | 179 | 1.7 | 2.6 | 0.00 | 0.00 | 0.00 | 77 | 1021.1 |